Weather History for Charleston, WV

Change the Weather History Date:

Monday, September 2, 2013

  Actual Average Record
Temperature  
Mean Temperature 77 °F 72 °F  
Max Temperature 86 °F 82 °F 104 °F (1932)
Min Temperature 67 °F 62 °F 44 °F (1949)
Degree Days  
Heating Degree Days 0 0  
Month to date heating degree days 0 0  
Since 1 July heating degree days 3 2  
Cooling Degree Days 12 7  
Month to date cooling degree days 23 14  
Year to date cooling degree days 989 960  
Growing Degree Days 26 (Base 50)    
Moisture  
Dew Point 69 °F    
Average Humidity 78    
Maximum Humidity 100    
Minimum Humidity 55    
Precipitation  
Precipitation T in 0.11 in 1.60 in (2014)
Month to date precipitation T 0.22  
Year to date precipitation 34.04 31.33  
Snow  
Snow 0.00 in - - ()
Month to date snowfall  
Since 1 September snowfall  
Snow Depth -    
Sea Level Pressure  
Sea Level Pressure 29.84 in    
Wind  
Wind Speed 5 mph (SW)    
Max Wind Speed 14 mph    
Max Gust Speed 21 mph    
Visibility 9 miles    
Events Rain , Thunderstorm    
T = Trace of Precipitation, MM = Missing Value Source: NWS Daily Summary

Daily Weather History Graph

Daily Weather History Graph

Search for Another Location

Airport:

Trip Planner

Search our weather history database for the weather conditions in past years. The results will help you decide how hot, cold, wet, or windy it might be!

Date:

Astronomy

Sep. 02, 2013 Rise Set
Actual Time 6:56 AM EDT 7:54 PM EDT
Civil Twilight 6:29 AM EDT 8:21 PM EDT
Nautical Twilight 5:57 AM EDT 8:53 PM EDT
Astronomical Twilight 5:24 AM EDT 9:26 PM EDT
Moon 4:13 AM EDT (9/2) 6:06 PM EDT (9/2)
Length of Visible Light 13h 51m
Length of Day
12h 57m
Waning Crescent, 8% of the Moon is Illuminated
Sep 2
Waning Crescent
Sep 5
New
Sep 12
First Quarter
Sep 19
Full
Sep 26
Last Quarter

Hourly Weather History & Observations

Time (EDT) Temp. Heat Index Dew Point Humidity Pressure Visibility Wind Dir Wind Speed Gust Speed Precip Events Conditions
12:54 AM 69.1 °F - 69.1 °F 100% 29.83 in 6.0 mi Calm Calm - N/A   Scattered Clouds
1:54 AM 69.1 °F - 69.1 °F 100% 29.83 in 8.0 mi Calm Calm - N/A   Mostly Cloudy
2:54 AM 69.1 °F - 68.0 °F 96% 29.82 in 10.0 mi Calm Calm - N/A   Partly Cloudy
3:46 AM 68.0 °F - 68.0 °F 100% 29.85 in 10.0 mi Calm Calm - N/A   Partly Cloudy
3:54 AM 68.0 °F - 68.0 °F 100% 29.82 in 10.0 mi Calm Calm - N/A   Partly Cloudy
4:54 AM 69.1 °F - 69.1 °F 100% 29.82 in 10.0 mi SSW 3.5 mph - N/A   Partly Cloudy
5:54 AM 68.0 °F - 68.0 °F 100% 29.82 in 10.0 mi Calm Calm - N/A   Scattered Clouds
6:38 AM 68.0 °F - 68.0 °F 100% 29.85 in 10.0 mi SE 3.5 mph - N/A   Overcast
6:54 AM 68.0 °F - 68.0 °F 100% 29.83 in 10.0 mi Calm Calm - N/A   Mostly Cloudy
7:42 AM 68.0 °F - 68.0 °F 100% 29.88 in 10.0 mi Calm Calm - N/A   Overcast
7:54 AM 68.0 °F - 68.0 °F 100% 29.86 in 8.0 mi SSE 3.5 mph - N/A   Overcast
8:54 AM 72.0 °F - 71.1 °F 97% 29.86 in 10.0 mi SW 4.6 mph - N/A   Overcast
9:54 AM 73.0 °F - 71.1 °F 93% 29.87 in 10.0 mi WSW 10.4 mph 18.4 mph 0.00 in   Overcast
10:54 AM 77.0 °F - 72.0 °F 84% 29.87 in 8.0 mi SW 8.1 mph - N/A   Mostly Cloudy
11:43 AM 77.0 °F - 71.6 °F 83% 29.90 in 10.0 mi SW 8.1 mph - 0.00 in   Overcast
11:54 AM 78.1 °F - 71.1 °F 79% 29.87 in 10.0 mi WSW 6.9 mph 16.1 mph 0.00 in   Overcast
12:14 PM 78.8 °F - 69.8 °F 74% 29.90 in 9.0 mi West 5.8 mph - N/A   Mostly Cloudy
12:54 PM 81.0 °F 84.4 °F 70.0 °F 69% 29.86 in 10.0 mi WSW 6.9 mph 16.1 mph 0.00 in Rain Light Rain
1:54 PM 82.9 °F 87.0 °F 70.0 °F 65% 29.86 in 10.0 mi SW 10.4 mph 18.4 mph N/A   Mostly Cloudy
2:10 PM 84.2 °F 88.4 °F 69.8 °F 62% 29.88 in 10.0 mi SW 10.4 mph - N/A   Mostly Cloudy
2:54 PM 84.9 °F 88.8 °F 69.1 °F 59% 29.83 in 10.0 mi WSW 11.5 mph 16.1 mph N/A   Scattered Clouds
3:54 PM 84.0 °F 87.0 °F 68.0 °F 58% 29.81 in 10.0 mi SW 8.1 mph - N/A   Scattered Clouds
4:54 PM 86.0 °F 89.4 °F 68.0 °F 55% 29.78 in 10.0 mi WSW 8.1 mph - 0.00 in   Mostly Cloudy
5:54 PM 84.0 °F 87.8 °F 69.1 °F 61% 29.78 in 10.0 mi WSW 4.6 mph - N/A   Mostly Cloudy
6:54 PM 82.0 °F 85.5 °F 69.1 °F 65% 29.80 in 10.0 mi WSW 5.8 mph - N/A   Mostly Cloudy
7:46 PM 75.2 °F - 68.0 °F 78% 29.84 in 9.0 mi NE 8.1 mph - N/A Thunderstorm Thunderstorm
7:54 PM 75.0 °F - 66.9 °F 76% 29.81 in 9.0 mi North 4.6 mph - N/A Thunderstorm Thunderstorm
8:03 PM 73.4 °F - 68.0 °F 83% 29.85 in 1.0 mi Variable 5.8 mph - 0.01 in Rain , Thunderstorm Thunderstorms and Rain
8:09 PM 69.8 °F - 69.8 °F 100% 29.86 in 1.0 mi West 6.9 mph - 0.16 in Rain , Thunderstorm Heavy Thunderstorms and Rain
8:27 PM 71.6 °F - 69.8 °F 94% 29.85 in 5.0 mi SE 3.5 mph - 0.34 in Rain , Thunderstorm Light Thunderstorms and Rain
8:49 PM 69.8 °F - 69.8 °F 100% 29.85 in 7.0 mi Calm Calm - 0.35 in Rain , Thunderstorm Light Thunderstorms and Rain
8:54 PM 70.0 °F - 69.1 °F 97% 29.83 in 7.0 mi Calm Calm - 0.35 in Rain , Thunderstorm Light Thunderstorms and Rain
9:54 PM 70.0 °F - 70.0 °F 100% 29.84 in 8.0 mi SSE 5.8 mph - 0.01 in Rain , Thunderstorm Light Thunderstorms and Rain
10:54 PM 70.0 °F - 69.1 °F 97% 29.85 in 10.0 mi Calm Calm - 0.24 in Thunderstorm Thunderstorm
11:12 PM 69.8 °F - 69.8 °F 100% 29.87 in 10.0 mi SSW 3.5 mph - N/A   Mostly Cloudy
11:54 PM 70.0 °F - 70.0 °F 100% 29.83 in 6.0 mi SSW 4.6 mph - N/A   Mostly Cloudy